• In Netherlands
  • List of Countries
  • For 7 days
  • Water Temperature
  • Satellite Maps
  • Weather Map
  • Weather Widgets
  • user-avatar
    Login

    Hourly Weather Nakhchivan

    Today, 23 May, Tuesday

    Time Temperature Precipitation Wind Pressure Humidity
    00:00 +18°C° 0 mm 2 mps 685 mmHg 44%
    01:00 +17°C° 0 mm 2 mps 685 mmHg 47%
    02:00 +18°C° 0 mm 1 mps 685 mmHg 50%
    03:00 +16°C° 0 mm 1 mps 684 mmHg 50%
    04:00 +17°C° 0 mm 2 mps 684 mmHg 50%
    05:00 +17°C° 0 mm 2 mps 684 mmHg 50%
    06:00 +18°C° 0 mm 2 mps 685 mmHg 50%
    07:00 +20°C° 0 mm 2 mps 685 mmHg 44%
    08:00 +21°C° 0 mm 2 mps 685 mmHg 38%
    09:00 +24°C° 0 mm 3 mps 685 mmHg 32%
    10:00 +25°C° 0 mm 3 mps 685 mmHg 30%
    11:00 +26°C° 0 mm 4 mps 685 mmHg 27%
    12:00 +27°C° 0 mm 4 mps 686 mmHg 25%
    13:00 +27°C° 0.2 mm 4 mps 685 mmHg 28%
    14:00 +26°C° 0.2 mm 4 mps 685 mmHg 31%
    15:00 +26°C° 0.2 mm 3 mps 685 mmHg 34%
    16:00 +24°C° 0.5 mm 3 mps 684 mmHg 40%
    17:00 +22°C° 0.5 mm 3 mps 684 mmHg 47%
    18:00 +21°C° 0.5 mm 2 mps 684 mmHg 54%
    19:00 +20°C° 0.1 mm 2 mps 684 mmHg 56%
    20:00 +19°C° 0.1 mm 2 mps 684 mmHg 59%
    21:00 +18°C° 0.1 mm 2 mps 684 mmHg 62%
    22:00 +17°C° 0.1 mm 2 mps 684 mmHg 61%
    23:00 +17°C° 0.1 mm 2 mps 684 mmHg 61%

    Tomorrow, 24 May, Wednesday

    Time Temperature Precipitation Wind Pressure Humidity
    00:00 +18°C° 0.1 mm 1 mps 684 mmHg 61%
    01:00 +18°C° 0.1 mm 1 mps 684 mmHg 60%
    02:00 +16°C° 0.1 mm 1 mps 684 mmHg 59%
    03:00 +16°C° 0.1 mm 1 mps 684 mmHg 58%
    04:00 +18°C° 0.2 mm 1 mps 684 mmHg 57%
    05:00 +18°C° 0.2 mm 1 mps 684 mmHg 57%
    06:00 +18°C° 0.2 mm 1 mps 684 mmHg 56%
    07:00 +19°C° 0.2 mm 1 mps 684 mmHg 52%
    08:00 +21°C° 0.2 mm 1 mps 684 mmHg 47%
    09:00 +22°C° 0.2 mm 1 mps 684 mmHg 43%
    10:00 +23°C° 0.1 mm 2 mps 684 mmHg 38%
    11:00 +25°C° 0.1 mm 2 mps 684 mmHg 34%
    12:00 +27°C° 0.1 mm 2 mps 684 mmHg 29%
    13:00 +27°C° 0.1 mm 2 mps 684 mmHg 27%
    14:00 +28°C° 0.1 mm 2 mps 684 mmHg 26%
    15:00 +28°C° 0.1 mm 2 mps 684 mmHg 24%
    16:00 +28°C° 0.1 mm 2 mps 684 mmHg 27%
    17:00 +27°C° 0.1 mm 3 mps 684 mmHg 30%
    18:00 +26°C° 0.1 mm 3 mps 684 mmHg 33%
    19:00 +24°C° 0.1 mm 3 mps 684 mmHg 40%
    20:00 +21°C° 0.1 mm 2 mps 685 mmHg 48%
    21:00 +19°C° 0.1 mm 2 mps 685 mmHg 56%
    22:00 +18°C° 0.1 mm 2 mps 685 mmHg 59%
    23:00 +18°C° 0.1 mm 2 mps 685 mmHg 62%

    Day after tomorrow, 25 May, Thursday

    Time Temperature Precipitation Wind Pressure Humidity
    00:00 +18°C° 0.1 mm 1 mps 685 mmHg 65%
    01:00 +18°C° 0 mm 1 mps 685 mmHg 66%
    02:00 +16°C° 0 mm 1 mps 685 mmHg 67%
    03:00 +16°C° 0 mm 1 mps 685 mmHg 68%
    04:00 +16°C° 0 mm 1 mps 685 mmHg 66%
    05:00 +18°C° 0 mm 1 mps 686 mmHg 63%
    06:00 +18°C° 0 mm 1 mps 686 mmHg 60%
    07:00 +20°C° 0 mm 1 mps 686 mmHg 53%
    08:00 +21°C° 0 mm 1 mps 687 mmHg 47%
    09:00 +23°C° 0 mm 1 mps 687 mmHg 40%
    10:00 +24°C° 0 mm 1 mps 687 mmHg 37%
    11:00 +25°C° 0 mm 1 mps 687 mmHg 33%
    12:00 +26°C° 0 mm 1 mps 687 mmHg 30%
    13:00 +27°C° 0 mm 2 mps 686 mmHg 28%
    14:00 +27°C° 0 mm 2 mps 686 mmHg 27%
    15:00 +28°C° 0 mm 2 mps 686 mmHg 25%
    16:00 +27°C° 0.1 mm 2 mps 686 mmHg 27%
    17:00 +27°C° 0.1 mm 2 mps 686 mmHg 29%
    18:00 +26°C° 0.1 mm 2 mps 686 mmHg 31%
    19:00 +24°C° 0 mm 2 mps 687 mmHg 35%
    20:00 +21°C° 0 mm 2 mps 687 mmHg 39%
    21:00 +20°C° 0 mm 2 mps 687 mmHg 43%
    22:00 +19°C° 0 mm 2 mps 687 mmHg 45%
    23:00 +18°C° 0 mm 2 mps 687 mmHg 46%

    26 May, Friday

    Time Temperature Precipitation Wind Pressure Humidity
    00:00 +19°C° 0 mm 1 mps 687 mmHg 47%
    01:00 +18°C° 0 mm 1 mps 687 mmHg 48%
    02:00 +18°C° 0 mm 1 mps 687 mmHg 48%
    03:00 +16°C° 0 mm 1 mps 687 mmHg 49%
    04:00 +18°C° 0 mm 1 mps 687 mmHg 48%
    05:00 +19°C° 0 mm 1 mps 687 mmHg 46%
    06:00 +19°C° 0 mm 1 mps 688 mmHg 45%
    07:00 +21°C° 0 mm 1 mps 688 mmHg 40%
    08:00 +23°C° 0 mm 1 mps 688 mmHg 34%
    09:00 +25°C° 0 mm 1 mps 688 mmHg 29%
    10:00 +26°C° 0 mm 2 mps 688 mmHg 26%
    11:00 +27°C° 0 mm 2 mps 687 mmHg 23%
    12:00 +28°C° 0 mm 2 mps 687 mmHg 20%
    13:00 +29°C° 0 mm 3 mps 687 mmHg 19%
    14:00 +29°C° 0 mm 3 mps 687 mmHg 19%
    15:00 +30°C° 0 mm 3 mps 687 mmHg 18%
    16:00 +29°C° 0 mm 3 mps 686 mmHg 20%
    17:00 +28°C° 0 mm 2 mps 686 mmHg 22%
    18:00 +27°C° 0 mm 2 mps 686 mmHg 24%
    19:00 +25°C° 0 mm 2 mps 686 mmHg 27%
    20:00 +24°C° 0 mm 2 mps 686 mmHg 30%
    21:00 +21°C° 0 mm 2 mps 687 mmHg 32%
    22:00 +20°C° 0 mm 2 mps 686 mmHg 34%
    23:00 +20°C° 0 mm 1 mps 686 mmHg 35%

    27 May, Saturday

    Time Temperature Precipitation Wind Pressure Humidity
    00:00 +20°C° 0 mm 1 mps 686 mmHg 36%
    01:00 +19°C° 0 mm 1 mps 686 mmHg 37%
    02:00 +19°C° 0 mm 1 mps 685 mmHg 39%
    03:00 +18°C° 0 mm 1 mps 685 mmHg 40%
    04:00 +19°C° 0.1 mm 1 mps 685 mmHg 41%
    05:00 +20°C° 0.1 mm 1 mps 685 mmHg 42%
    06:00 +20°C° 0.1 mm 1 mps 685 mmHg 42%
    07:00 +22°C° 0.1 mm 1 mps 685 mmHg 37%
    08:00 +24°C° 0.1 mm 1 mps 685 mmHg 32%
    09:00 +26°C° 0.1 mm 1 mps 685 mmHg 26%
    10:00 +28°C° 0.2 mm 2 mps 685 mmHg 25%
    11:00 +29°C° 0.2 mm 3 mps 684 mmHg 23%
    12:00 +32°C° 0.2 mm 4 mps 684 mmHg 21%
    13:00 +32°C° 0.1 mm 4 mps 684 mmHg 20%
    14:00 +33°C° 0.1 mm 4 mps 683 mmHg 20%
    15:00 +33°C° 0.1 mm 4 mps 683 mmHg 19%
    16:00 +31°C° 0.1 mm 3 mps 683 mmHg 23%
    17:00 +30°C° 0.1 mm 3 mps 683 mmHg 26%
    18:00 +29°C° 0.1 mm 3 mps 683 mmHg 29%
    19:00 +27°C° 0 mm 3 mps 683 mmHg 34%
    20:00 +25°C° 0 mm 2 mps 683 mmHg 39%
    21:00 +21°C° 0 mm 2 mps 684 mmHg 44%
    22:00 +21°C° 0 mm 2 mps 684 mmHg 44%
    23:00 +20°C° 0 mm 2 mps 684 mmHg 45%

    28 May, Sunday

    Time Temperature Precipitation Wind Pressure Humidity
    00:00 +20°C° 0 mm 1 mps 684 mmHg 46%
    01:00 +19°C° 0 mm 1 mps 684 mmHg 46%
    02:00 +19°C° 0 mm 1 mps 684 mmHg 46%
    03:00 +18°C° 0 mm 1 mps 684 mmHg 46%
    04:00 +19°C° 0 mm 1 mps 684 mmHg 45%
    05:00 +19°C° 0 mm 2 mps 685 mmHg 43%
    06:00 +19°C° 0 mm 2 mps 685 mmHg 42%
    07:00 +21°C° 0 mm 2 mps 685 mmHg 36%
    08:00 +24°C° 0 mm 2 mps 686 mmHg 30%
    09:00 +26°C° 0 mm 2 mps 686 mmHg 24%
    10:00 +27°C° 0 mm 3 mps 686 mmHg 21%
    11:00 +29°C° 0 mm 3 mps 685 mmHg 19%
    12:00 +30°C° 0 mm 3 mps 685 mmHg 17%
    13:00 +32°C° 0 mm 4 mps 685 mmHg 17%
    14:00 +32°C° 0 mm 4 mps 685 mmHg 16%
    15:00 +32°C° 0 mm 5 mps 684 mmHg 15%
    16:00 +30°C° 0 mm 4 mps 684 mmHg 17%
    17:00 +30°C° 0 mm 4 mps 684 mmHg 19%
    18:00 +29°C° 0 mm 4 mps 684 mmHg 21%
    19:00 +27°C° 0 mm 3 mps 684 mmHg 25%
    20:00 +24°C° 0 mm 3 mps 685 mmHg 29%
    21:00 +21°C° 0 mm 2 mps 685 mmHg 33%
    22:00 +21°C° 0 mm 2 mps 685 mmHg 34%
    23:00 +20°C° 0 mm 2 mps 685 mmHg 36%
    Show more